Flag for Turkey Weather past 2 weeks in Istanbul, Turkey

Now
48 °F

Sprinkles. Broken clouds.


Feels Like: 42 °F
Forecast: 41 / 49 °F
Wind: 18 mph from North

Location: Istanbul Ataturk Airport

Current Time: Apr 21, 2015 at 11:17:04 AM

Latest Report: Apr 21, 2015 at 10:50 AM


Visibility: N/A

Pressure: 29.95 "Hg

Humidity: 82%

Dew point: 43 °F

Location of IstanbulLocation

Historic Weather in Istanbul — Graph

°F

Istanbul temperature yesterday

Maximum temperature yesterday: 55 °F (at 5:20 PM)
Minimum temperature yesterday: 45 °F (at 5:20 AM)
Average temperature yesterday: 50 °F

Past Weeks' High & Low Weather Summary

 TemperatureHumidityPressure
High70 °F (Apr 17, 4:20 PM)100% (Apr 16, 8:01 AM)30.33 "Hg (Apr 16, 8:01 AM)
Low39 °F (Apr 11, 4:20 AM)26% (Apr 10, 12:50 PM)29.68 "Hg (Apr 6, 5:20 PM)
Average52 °F67%30.07 "Hg
* Reported Apr 6 9:20 AM — Apr 21 9:50 AM, Istanbul, Weather by CustomWeather, © 2015

Note: Actual official high and low records may vary slightly from our data, if they occured in-between our weather recording intervals... More about our weather records

Advertising

Istanbul weather history for previous 24 hours

 ConditionsComfort  
Time TempWeatherWind HumidityBarometerVisibility
9:50 AM
Tue, Apr 21
50 °FSprinkles. Partly sunny.20 mph76%29.92 "HgN/A
9:20 AM50 °FSprinkles. Partly sunny.18 mph76%29.92 "HgN/A
8:50 AM50 °FSprinkles. Partly sunny.18 mph76%29.89 "HgN/A
8:20 AM50 °FSprinkles. Broken clouds.13 mph76%29.89 "HgN/A
7:55 AM52 °FSprinkles. Broken clouds.7 mph67%29.89 "HgN/A
7:20 AM50 °FBroken clouds.8 mph71%29.86 "HgN/A
6:50 AM50 °FPartly cloudy.7 mph76%29.86 "HgN/A
6:20 AM50 °FPartly cloudy.5 mph71%29.86 "HgN/A
5:50 AM52 °FPartly cloudy.7 mph62%29.86 "HgN/A
5:20 AM52 °FPartly cloudy.5 mph62%29.86 "HgN/A
4:50 AM52 °FSprinkles. Partly cloudy.5 mph77%29.86 "HgN/A
4:20 AM52 °FPartly cloudy.6 mph82%29.86 "HgN/A
3:50 AM52 °FClear.7 mph77%29.86 "Hg10 mi
3:20 AM52 °FClear.8 mph77%29.86 "Hg10 mi
2:50 AM50 °FClear.8 mph82%29.86 "Hg10 mi
2:20 AM50 °FClear.7 mph76%29.86 "Hg10 mi
1:50 AM50 °FClear.7 mph76%29.86 "Hg10 mi
1:20 AM50 °FClear.7 mph76%29.89 "Hg10 mi
12:50 AM50 °FClear.3 mph71%29.89 "Hg10 mi
12:20 AM48 °FClear.3 mph71%29.89 "Hg10 mi
11:50 PM
Mon, Apr 20
50 °FClear.3 mph67%29.89 "Hg10 mi
11:20 PM50 °FClear.3 mph62%29.89 "Hg10 mi
10:50 PM50 °FClear.5 mph62%29.89 "Hg10 mi
10:20 PM50 °FClear.3 mph67%29.89 "Hg10 mi
9:50 PM50 °FClear.5 mph67%29.89 "Hg10 mi
9:20 PM50 °FClear.2 mph62%29.89 "Hg10 mi
8:50 PM50 °FClear.5 mph62%29.89 "Hg10 mi
8:20 PM50 °FSunny.6 mph58%29.89 "Hg10 mi
7:50 PM52 °FSunny.6 mph54%29.89 "Hg10 mi
7:20 PM52 °FSunny.7 mph54%29.89 "Hg10 mi
6:50 PM52 °FPassing clouds.9 mph54%29.89 "HgN/A
6:20 PM54 °FSunny.10 mph51%29.89 "Hg10 mi
5:50 PM54 °FSunny.9 mph51%29.89 "Hg10 mi
5:20 PM55 °FSunny.8 mph44%29.92 "Hg10 mi
4:50 PM54 °FSunny.10 mph54%29.92 "Hg10 mi
4:20 PM54 °FSunny.10 mph51%29.92 "Hg10 mi
3:50 PM54 °FSunny.12 mph47%29.92 "Hg10 mi
3:20 PM54 °FSunny.12 mph47%29.95 "Hg10 mi
2:50 PM54 °FSunny.12 mph47%29.95 "Hg10 mi
2:20 PM54 °FPassing clouds.12 mph47%29.95 "HgN/A
1:50 PM52 °FSunny.10 mph44%29.98 "Hg10 mi
1:20 PM52 °FPassing clouds.9 mph44%29.98 "HgN/A
12:50 PM50 °FPassing clouds.9 mph62%29.98 "HgN/A
12:20 PM52 °FPassing clouds.9 mph62%30.01 "HgN/A
11:50 AM50 °FPassing clouds.7 mph58%30.01 "HgN/A
11:20 AM52 °FPassing clouds.8 mph58%30.01 "HgN/A
Weather by CustomWeather, © 2015

See weather overviewHow to use our weather pages